Year,Month,Day,Hour,Minute,Value (Times are PST for temperature in C)
2015,09,12,00,00,16.10
2015,09,12,00,01,16.10
2015,09,12,00,02,16.10
2015,09,12,00,03,16.10
2015,09,12,00,04,16.10
2015,09,12,00,05,16.20
2015,09,12,00,06,16.20
2015,09,12,00,07,16.20
2015,09,12,00,08,16.20
2015,09,12,00,09,16.20
2015,09,12,00,10,16.20
2015,09,12,00,11,16.20
2015,09,12,00,12,16.20
2015,09,12,00,13,16.20
2015,09,12,00,14,16.20
2015,09,12,00,15,16.10
2015,09,12,00,16,16.10
2015,09,12,00,17,16.10
2015,09,12,00,18,16.10
2015,09,12,00,19,16.00
2015,09,12,00,20,16.00
2015,09,12,00,21,16.00
2015,09,12,00,22,16.00
2015,09,12,00,23,16.00
2015,09,12,00,24,16.00
2015,09,12,00,25,15.90
2015,09,12,00,26,15.90
2015,09,12,00,27,15.90
2015,09,12,00,28,15.80
2015,09,12,00,29,15.80
2015,09,12,00,30,15.80
2015,09,12,00,31,15.70
2015,09,12,00,32,15.70
2015,09,12,00,33,15.70
2015,09,12,00,34,15.70
2015,09,12,00,35,15.60
2015,09,12,00,36,15.60
2015,09,12,00,37,15.60
2015,09,12,00,38,15.60
2015,09,12,00,39,15.60
2015,09,12,00,40,15.60
2015,09,12,00,41,15.60
2015,09,12,00,42,15.60
2015,09,12,00,43,15.60
2015,09,12,00,44,15.60
2015,09,12,00,45,15.70
2015,09,12,00,46,15.70
2015,09,12,00,47,15.70
2015,09,12,00,48,15.70
2015,09,12,00,49,15.70
2015,09,12,00,50,15.60
2015,09,12,00,51,15.60
2015,09,12,00,52,15.60
2015,09,12,00,53,15.60
2015,09,12,00,54,15.60
2015,09,12,00,55,15.60
2015,09,12,00,56,15.60
2015,09,12,00,57,15.70
2015,09,12,00,58,15.70
2015,09,12,00,59,15.70
2015,09,12,01,00,15.70
2015,09,12,01,01,15.70
2015,09,12,01,02,15.70
2015,09,12,01,03,15.70
2015,09,12,01,04,15.70
2015,09,12,01,05,15.70
2015,09,12,01,06,15.70
2015,09,12,01,07,15.70
2015,09,12,01,08,15.70
2015,09,12,01,09,15.70
2015,09,12,01,10,15.60
2015,09,12,01,11,15.60
2015,09,12,01,12,15.60
2015,09,12,01,13,15.60
2015,09,12,01,14,15.60
2015,09,12,01,15,15.60
2015,09,12,01,16,15.60
2015,09,12,01,17,15.60
2015,09,12,01,18,15.60
2015,09,12,01,19,15.60
2015,09,12,01,20,15.60
2015,09,12,01,21,15.60
2015,09,12,01,22,15.60
2015,09,12,01,23,15.60
2015,09,12,01,24,15.60
2015,09,12,01,25,15.60
2015,09,12,01,26,15.60
2015,09,12,01,27,15.60
2015,09,12,01,28,15.60
2015,09,12,01,29,15.60
2015,09,12,01,30,15.60
2015,09,12,01,31,15.60
2015,09,12,01,32,15.60
2015,09,12,01,33,15.50
2015,09,12,01,34,15.50
2015,09,12,01,35,15.50
2015,09,12,01,36,15.40
2015,09,12,01,37,15.40
2015,09,12,01,38,15.40
2015,09,12,01,39,15.40
2015,09,12,01,40,15.30
2015,09,12,01,41,15.30
2015,09,12,01,42,15.30
2015,09,12,01,43,15.20
2015,09,12,01,44,15.20
2015,09,12,01,45,15.20
2015,09,12,01,46,15.10
2015,09,12,01,47,15.10
2015,09,12,01,48,15.00
2015,09,12,01,49,15.00
2015,09,12,01,50,15.00
2015,09,12,01,51,14.90
2015,09,12,01,52,14.90
2015,09,12,01,53,14.90
2015,09,12,01,54,14.90
2015,09,12,01,55,14.90
2015,09,12,01,56,14.90
2015,09,12,01,57,14.90
2015,09,12,01,58,15.00
2015,09,12,01,59,15.00
2015,09,12,02,00,15.00
2015,09,12,02,01,15.00
2015,09,12,02,02,15.00
2015,09,12,02,03,15.00
2015,09,12,02,04,15.00
2015,09,12,02,05,15.00
2015,09,12,02,06,15.00
2015,09,12,02,07,15.00
2015,09,12,02,08,15.00
2015,09,12,02,09,15.00
2015,09,12,02,10,15.00
2015,09,12,02,11,15.00
2015,09,12,02,12,15.00
2015,09,12,02,13,15.00
2015,09,12,02,14,14.90
2015,09,12,02,15,14.90
2015,09,12,02,16,14.90
2015,09,12,02,17,14.90
2015,09,12,02,18,14.80
2015,09,12,02,19,14.80
2015,09,12,02,20,14.80
2015,09,12,02,21,14.80
2015,09,12,02,22,14.80
2015,09,12,02,23,14.80
2015,09,12,02,24,14.80
2015,09,12,02,25,14.80
2015,09,12,02,26,14.80
2015,09,12,02,27,14.90
2015,09,12,02,28,14.90
2015,09,12,02,29,14.90
2015,09,12,02,30,14.90
2015,09,12,02,31,14.90
2015,09,12,02,32,14.90
2015,09,12,02,33,14.90
2015,09,12,02,34,15.00
2015,09,12,02,35,15.00
2015,09,12,02,36,15.00
2015,09,12,02,37,15.00
2015,09,12,02,38,15.00
2015,09,12,02,39,15.00
2015,09,12,02,40,15.10
2015,09,12,02,41,15.10
2015,09,12,02,42,15.10
2015,09,12,02,43,15.10
2015,09,12,02,44,15.10
2015,09,12,02,45,15.10
2015,09,12,02,46,15.10
2015,09,12,02,47,15.00
2015,09,12,02,48,15.00
2015,09,12,02,49,15.00
2015,09,12,02,50,15.00
2015,09,12,02,51,15.00
2015,09,12,02,52,14.90
2015,09,12,02,53,14.90
2015,09,12,02,54,14.90
2015,09,12,02,55,14.90
2015,09,12,02,56,14.90
2015,09,12,02,57,14.90
2015,09,12,02,58,14.90
2015,09,12,02,59,14.90
2015,09,12,03,00,14.80
2015,09,12,03,01,14.80
2015,09,12,03,02,14.80
2015,09,12,03,03,14.80
2015,09,12,03,04,14.80
2015,09,12,03,05,14.70
2015,09,12,03,06,14.70
2015,09,12,03,07,14.70
2015,09,12,03,08,14.60
2015,09,12,03,09,14.60
2015,09,12,03,10,14.60
2015,09,12,03,11,14.50
2015,09,12,03,12,14.50
2015,09,12,03,13,14.40
2015,09,12,03,14,14.40
2015,09,12,03,15,14.40
2015,09,12,03,16,14.40
2015,09,12,03,17,14.40
2015,09,12,03,18,14.30
2015,09,12,03,19,14.30
2015,09,12,03,20,14.30
2015,09,12,03,21,14.30
2015,09,12,03,22,14.20
2015,09,12,03,23,14.20
2015,09,12,03,24,14.20
2015,09,12,03,25,14.20
2015,09,12,03,26,14.20
2015,09,12,03,27,14.10
2015,09,12,03,28,14.10
2015,09,12,03,29,14.10
2015,09,12,03,30,14.00
2015,09,12,03,31,14.00
2015,09,12,03,32,14.00
2015,09,12,03,33,13.90
2015,09,12,03,34,13.90
2015,09,12,03,35,13.90
2015,09,12,03,36,13.90
2015,09,12,03,37,13.90
2015,09,12,03,38,13.90
2015,09,12,03,39,13.90
2015,09,12,03,40,13.90
2015,09,12,03,41,13.90
2015,09,12,03,42,13.90
2015,09,12,03,43,13.90
2015,09,12,03,44,14.00
2015,09,12,03,45,14.00
2015,09,12,03,46,14.10
2015,09,12,03,47,14.10
2015,09,12,03,48,14.10
2015,09,12,03,49,14.10
2015,09,12,03,50,14.20
2015,09,12,03,51,14.20
2015,09,12,03,52,14.20
2015,09,12,03,53,14.20
2015,09,12,03,54,14.20
2015,09,12,03,55,14.30
2015,09,12,03,56,14.20
2015,09,12,03,57,14.20
2015,09,12,03,58,14.20
2015,09,12,03,59,14.20
2015,09,12,04,00,14.20
2015,09,12,04,01,14.20
2015,09,12,04,02,14.20
2015,09,12,04,03,14.20
2015,09,12,04,04,14.20
2015,09,12,04,05,14.20
2015,09,12,04,06,14.10
2015,09,12,04,07,14.20
2015,09,12,04,08,14.20
2015,09,12,04,09,14.20
2015,09,12,04,10,14.20
2015,09,12,04,11,14.20
2015,09,12,04,12,14.20
2015,09,12,04,13,14.20
2015,09,12,04,14,14.20
2015,09,12,04,15,14.20
2015,09,12,04,16,14.20
2015,09,12,04,17,14.20
2015,09,12,04,18,14.20
2015,09,12,04,19,14.20
2015,09,12,04,20,14.10
2015,09,12,04,21,14.10
2015,09,12,04,22,14.10
2015,09,12,04,23,14.10
2015,09,12,04,24,14.00
2015,09,12,04,25,14.00
2015,09,12,04,26,13.90
2015,09,12,04,27,13.90
2015,09,12,04,28,13.90
2015,09,12,04,29,13.80
2015,09,12,04,30,13.80
2015,09,12,04,31,13.80
2015,09,12,04,32,13.70
2015,09,12,04,33,13.70
2015,09,12,04,34,13.70
2015,09,12,04,35,13.70
2015,09,12,04,36,13.70
2015,09,12,04,37,13.70
2015,09,12,04,38,13.70
2015,09,12,04,39,13.70
2015,09,12,04,40,13.60
2015,09,12,04,41,13.60
2015,09,12,04,42,13.60
2015,09,12,04,43,13.60
2015,09,12,04,44,13.60
2015,09,12,04,45,13.60
2015,09,12,04,46,13.60
2015,09,12,04,47,13.60
2015,09,12,04,48,13.60
2015,09,12,04,49,13.60
2015,09,12,04,50,13.60
2015,09,12,04,51,13.60
2015,09,12,04,52,13.60
2015,09,12,04,53,13.60
2015,09,12,04,54,13.60
2015,09,12,04,55,13.60
2015,09,12,04,56,13.60
2015,09,12,04,57,13.50
2015,09,12,04,58,13.50
2015,09,12,04,59,13.50
2015,09,12,05,00,13.40
2015,09,12,05,01,13.40
2015,09,12,05,02,13.40
2015,09,12,05,03,13.40
2015,09,12,05,04,13.40
2015,09,12,05,05,13.40
2015,09,12,05,06,13.40
2015,09,12,05,07,13.40
2015,09,12,05,08,13.40
2015,09,12,05,09,13.40
2015,09,12,05,10,13.40
2015,09,12,05,11,13.40
2015,09,12,05,12,13.30
2015,09,12,05,13,13.30
2015,09,12,05,14,13.30
2015,09,12,05,15,13.30
2015,09,12,05,16,13.30
2015,09,12,05,17,13.20
2015,09,12,05,18,13.20
2015,09,12,05,19,13.10
2015,09,12,05,20,13.10
2015,09,12,05,21,13.00
2015,09,12,05,22,13.00
2015,09,12,05,23,12.90
2015,09,12,05,24,12.90
2015,09,12,05,25,12.90
2015,09,12,05,26,12.90
2015,09,12,05,27,12.90
2015,09,12,05,28,12.80
2015,09,12,05,29,12.80
2015,09,12,05,30,12.80
2015,09,12,05,31,12.80
2015,09,12,05,32,12.80
2015,09,12,05,33,12.70
2015,09,12,05,34,12.70
2015,09,12,05,35,12.70
2015,09,12,05,36,12.70
2015,09,12,05,37,12.60
2015,09,12,05,38,12.60
2015,09,12,05,39,12.60
2015,09,12,05,40,12.60
2015,09,12,05,41,12.60
2015,09,12,05,42,12.60
2015,09,12,05,43,12.60
2015,09,12,05,44,12.60
2015,09,12,05,45,12.60
2015,09,12,05,46,12.50
2015,09,12,05,47,12.50
2015,09,12,05,48,12.40
2015,09,12,05,49,12.40
2015,09,12,05,50,12.40
2015,09,12,05,51,12.40
2015,09,12,05,52,12.40
2015,09,12,05,53,12.40
2015,09,12,05,54,12.40
2015,09,12,05,55,12.40
2015,09,12,05,56,12.30
2015,09,12,05,57,12.30
2015,09,12,05,58,12.30
2015,09,12,05,59,12.40
2015,09,12,06,00,12.30
2015,09,12,06,01,12.30
2015,09,12,06,02,12.30
2015,09,12,06,03,12.40
2015,09,12,06,04,12.40
2015,09,12,06,05,12.40
2015,09,12,06,06,12.40
2015,09,12,06,07,12.30
2015,09,12,06,08,12.30
2015,09,12,06,09,12.30
2015,09,12,06,10,12.30
2015,09,12,06,11,12.20
2015,09,12,06,12,12.20
2015,09,12,06,13,12.20
2015,09,12,06,14,12.20
2015,09,12,06,15,12.20
2015,09,12,06,16,12.20
2015,09,12,06,17,12.20
2015,09,12,06,18,12.20
2015,09,12,06,19,12.20
2015,09,12,06,20,12.20
2015,09,12,06,21,12.30
2015,09,12,06,22,12.30
2015,09,12,06,23,12.20
2015,09,12,06,24,12.20
2015,09,12,06,25,12.20
2015,09,12,06,26,12.20
2015,09,12,06,27,12.20
2015,09,12,06,28,12.20
2015,09,12,06,29,12.20
2015,09,12,06,30,12.20
2015,09,12,06,31,12.20
2015,09,12,06,32,12.20
2015,09,12,06,33,12.20
2015,09,12,06,34,12.20
2015,09,12,06,35,12.10
2015,09,12,06,36,12.10
2015,09,12,06,37,12.10
2015,09,12,06,38,12.10
2015,09,12,06,39,12.20
2015,09,12,06,40,12.20
2015,09,12,06,41,12.30
2015,09,12,06,42,12.30
2015,09,12,06,43,12.40
2015,09,12,06,44,12.50
2015,09,12,06,45,12.50
2015,09,12,06,46,12.60
2015,09,12,06,47,12.60
2015,09,12,06,48,12.60
2015,09,12,06,49,12.60
2015,09,12,06,50,12.70
2015,09,12,06,51,12.70
2015,09,12,06,52,12.70
2015,09,12,06,53,12.70
2015,09,12,06,54,12.70
2015,09,12,06,55,12.80
2015,09,12,06,56,12.70
2015,09,12,06,57,12.70
2015,09,12,06,58,12.70
2015,09,12,06,59,12.70
2015,09,12,07,00,12.60
2015,09,12,07,01,12.60
2015,09,12,07,02,12.60
2015,09,12,07,03,12.60
2015,09,12,07,04,12.70
2015,09,12,07,05,12.70
2015,09,12,07,06,12.80
2015,09,12,07,07,12.90
2015,09,12,07,08,13.10
2015,09,12,07,09,13.20
2015,09,12,07,10,13.40
2015,09,12,07,11,13.50
2015,09,12,07,12,13.60
2015,09,12,07,13,13.80
2015,09,12,07,14,13.90
2015,09,12,07,15,13.90
2015,09,12,07,16,13.90
2015,09,12,07,17,13.90
2015,09,12,07,18,14.00
2015,09,12,07,19,14.00
2015,09,12,07,20,14.00
2015,09,12,07,21,14.00
2015,09,12,07,22,14.10
2015,09,12,07,23,14.10
2015,09,12,07,24,14.20
2015,09,12,07,25,14.40
2015,09,12,07,26,14.50
2015,09,12,07,27,14.70
2015,09,12,07,28,14.80
2015,09,12,07,29,14.80
2015,09,12,07,30,14.90
2015,09,12,07,31,15.00
2015,09,12,07,32,15.00
2015,09,12,07,33,15.10
2015,09,12,07,34,15.20
2015,09,12,07,35,15.30
2015,09,12,07,36,15.40
2015,09,12,07,37,15.50
2015,09,12,07,38,15.50
2015,09,12,07,39,15.60
2015,09,12,07,40,15.80
2015,09,12,07,41,15.90
2015,09,12,07,42,15.90
2015,09,12,07,43,16.00
2015,09,12,07,44,16.00
2015,09,12,07,45,16.10
2015,09,12,07,46,16.10
2015,09,12,07,47,16.10
2015,09,12,07,48,16.20
2015,09,12,07,49,16.30
2015,09,12,07,50,16.40
2015,09,12,07,51,16.40
2015,09,12,07,52,16.50
2015,09,12,07,53,16.50
2015,09,12,07,54,16.60
2015,09,12,07,55,16.70
2015,09,12,07,56,16.80
2015,09,12,07,57,16.80
2015,09,12,07,58,16.90
2015,09,12,07,59,17.00
2015,09,12,08,00,17.00
2015,09,12,08,01,17.10
2015,09,12,08,02,17.10
2015,09,12,08,03,17.20
2015,09,12,08,04,17.20
2015,09,12,08,05,17.20
2015,09,12,08,06,17.20
2015,09,12,08,07,17.20
2015,09,12,08,08,17.20
2015,09,12,08,09,17.20
2015,09,12,08,10,17.20
2015,09,12,08,11,17.10
2015,09,12,08,12,17.10
2015,09,12,08,13,17.10
2015,09,12,08,14,17.10
2015,09,12,08,15,17.10
2015,09,12,08,16,17.10
2015,09,12,08,17,17.10
2015,09,12,08,18,17.00
2015,09,12,08,19,17.00
2015,09,12,08,20,16.90
2015,09,12,08,21,16.90
2015,09,12,08,22,16.90
2015,09,12,08,23,16.90
2015,09,12,08,24,16.90
2015,09,12,08,25,16.90
2015,09,12,08,26,16.90
2015,09,12,08,27,16.90
2015,09,12,08,28,16.90
2015,09,12,08,29,17.00
2015,09,12,08,30,17.00
2015,09,12,08,31,17.10
2015,09,12,08,32,17.20
2015,09,12,08,33,17.30
2015,09,12,08,34,17.40
2015,09,12,08,35,17.50
2015,09,12,08,36,17.60
2015,09,12,08,37,17.60
2015,09,12,08,38,17.70
2015,09,12,08,39,17.80
2015,09,12,08,40,17.80
2015,09,12,08,41,17.90
2015,09,12,08,42,17.90
2015,09,12,08,43,18.00
2015,09,12,08,44,18.00
2015,09,12,08,45,18.00
2015,09,12,08,46,18.00
2015,09,12,08,47,18.10
2015,09,12,08,48,18.10
2015,09,12,08,49,18.10
2015,09,12,08,50,18.10
2015,09,12,08,51,18.10
2015,09,12,08,52,18.20
2015,09,12,08,53,18.20
2015,09,12,08,54,18.30
2015,09,12,08,55,18.30
2015,09,12,08,56,18.40
2015,09,12,08,57,18.50
2015,09,12,08,58,18.50
2015,09,12,08,59,18.50
2015,09,12,09,00,18.50
2015,09,12,09,01,18.40
2015,09,12,09,02,18.40
2015,09,12,09,03,18.40
2015,09,12,09,04,18.40
2015,09,12,09,05,18.50
2015,09,12,09,06,18.60
2015,09,12,09,07,18.70
2015,09,12,09,08,18.70
2015,09,12,09,09,18.80
2015,09,12,09,10,18.90
2015,09,12,09,11,19.00
2015,09,12,09,12,19.00
2015,09,12,09,13,19.00
2015,09,12,09,14,19.00
2015,09,12,09,15,19.00
2015,09,12,09,16,19.10
2015,09,12,09,17,19.10
2015,09,12,09,18,19.00
2015,09,12,09,19,19.00
2015,09,12,09,20,19.10
2015,09,12,09,21,19.10
2015,09,12,09,22,19.20
2015,09,12,09,23,19.20
2015,09,12,09,24,19.20
2015,09,12,09,25,19.10
2015,09,12,09,26,19.10
2015,09,12,09,27,19.00
2015,09,12,09,28,18.90
2015,09,12,09,29,18.90
2015,09,12,09,30,18.90
2015,09,12,09,31,18.80
2015,09,12,09,32,18.80
2015,09,12,09,33,18.80
2015,09,12,09,34,18.80
2015,09,12,09,35,18.80
2015,09,12,09,36,18.80
2015,09,12,09,37,18.80
2015,09,12,09,38,18.80
2015,09,12,09,39,18.80
2015,09,12,09,40,18.90
2015,09,12,09,41,19.10
2015,09,12,09,42,19.10
2015,09,12,09,43,19.20
2015,09,12,09,44,19.20
2015,09,12,09,45,19.20
2015,09,12,09,46,19.30
2015,09,12,09,47,19.30
2015,09,12,09,48,19.40
2015,09,12,09,49,19.50
2015,09,12,09,50,19.60
2015,09,12,09,51,19.70
2015,09,12,09,52,19.70
2015,09,12,09,53,19.70
2015,09,12,09,54,19.70
2015,09,12,09,55,19.80
2015,09,12,09,56,19.90
2015,09,12,09,57,20.00
2015,09,12,09,58,20.00
2015,09,12,09,59,20.00
2015,09,12,10,00,20.00
2015,09,12,10,01,20.00
2015,09,12,10,02,20.00
2015,09,12,10,03,20.10
2015,09,12,10,04,20.10
2015,09,12,10,05,20.10
2015,09,12,10,06,20.10
2015,09,12,10,07,20.10
2015,09,12,10,08,20.20
2015,09,12,10,09,20.20
2015,09,12,10,10,20.30
2015,09,12,10,11,20.30
2015,09,12,10,12,20.30
2015,09,12,10,13,20.40
2015,09,12,10,14,20.40
2015,09,12,10,15,20.50
2015,09,12,10,16,20.50
2015,09,12,10,17,20.50
2015,09,12,10,18,20.60
2015,09,12,10,19,20.60
2015,09,12,10,20,20.70
2015,09,12,10,21,20.80
2015,09,12,10,22,20.80
2015,09,12,10,23,20.80
2015,09,12,10,24,20.80
2015,09,12,10,25,20.80
2015,09,12,10,26,20.80
2015,09,12,10,27,20.80
2015,09,12,10,28,20.70
2015,09,12,10,29,20.70
2015,09,12,10,30,20.70
2015,09,12,10,31,20.70
2015,09,12,10,32,20.70
2015,09,12,10,33,20.50
2015,09,12,10,34,20.40
2015,09,12,10,35,20.20
2015,09,12,10,36,20.10
2015,09,12,10,37,20.10
2015,09,12,10,38,20.10
2015,09,12,10,39,20.10
2015,09,12,10,40,20.10
2015,09,12,10,41,20.20
2015,09,12,10,42,20.30
2015,09,12,10,43,20.50
2015,09,12,10,44,20.60
2015,09,12,10,45,20.60
2015,09,12,10,46,20.70
2015,09,12,10,47,20.70
2015,09,12,10,48,20.60
2015,09,12,10,49,20.60
2015,09,12,10,50,20.60
2015,09,12,10,51,20.60
2015,09,12,10,52,20.60
2015,09,12,10,53,20.60
2015,09,12,10,54,20.70
2015,09,12,10,55,20.70
2015,09,12,10,56,20.70
2015,09,12,10,57,20.80
2015,09,12,10,58,20.80
2015,09,12,10,59,20.80
2015,09,12,11,00,20.90
2015,09,12,11,01,20.90
2015,09,12,11,02,20.80
2015,09,12,11,03,20.80
2015,09,12,11,04,20.80
2015,09,12,11,05,20.80
2015,09,12,11,06,20.90
2015,09,12,11,07,20.90
2015,09,12,11,08,20.90
2015,09,12,11,09,21.00
2015,09,12,11,10,21.00
2015,09,12,11,11,21.10
2015,09,12,11,12,21.00
2015,09,12,11,13,21.00
2015,09,12,11,14,21.10
2015,09,12,11,15,21.10
2015,09,12,11,16,21.10
2015,09,12,11,17,21.10
2015,09,12,11,18,21.10
2015,09,12,11,19,21.20
2015,09,12,11,20,21.20
2015,09,12,11,21,21.30
2015,09,12,11,22,21.40
2015,09,12,11,23,21.40
2015,09,12,11,24,21.40
2015,09,12,11,25,21.30
2015,09,12,11,26,21.30
2015,09,12,11,27,21.20
2015,09,12,11,28,21.10
2015,09,12,11,29,21.10
2015,09,12,11,30,21.10
2015,09,12,11,31,21.10
2015,09,12,11,32,21.10
2015,09,12,11,33,21.20
2015,09,12,11,34,21.20
2015,09,12,11,35,21.30
2015,09,12,11,36,21.30
2015,09,12,11,37,21.30
2015,09,12,11,38,21.30
2015,09,12,11,39,21.30
2015,09,12,11,40,21.30
2015,09,12,11,41,21.40
2015,09,12,11,42,21.40
2015,09,12,11,43,21.50
2015,09,12,11,44,21.50
2015,09,12,11,45,21.60
2015,09,12,11,46,21.60
2015,09,12,11,47,21.70
2015,09,12,11,48,21.70
2015,09,12,11,49,21.70
2015,09,12,11,50,21.60
2015,09,12,11,51,21.50
2015,09,12,11,52,21.50
2015,09,12,11,53,21.40
2015,09,12,11,54,21.40
2015,09,12,11,55,21.40
2015,09,12,11,56,21.50
2015,09,12,11,57,21.60
2015,09,12,11,58,21.60
2015,09,12,11,59,21.70
2015,09,12,12,00,21.80
2015,09,12,12,01,21.80
2015,09,12,12,02,21.90
2015,09,12,12,03,21.90
2015,09,12,12,04,22.00
2015,09,12,12,05,22.10
2015,09,12,12,06,22.00
2015,09,12,12,07,22.00
2015,09,12,12,08,22.00
2015,09,12,12,09,22.10
2015,09,12,12,10,22.10
2015,09,12,12,11,22.10
2015,09,12,12,12,22.10
2015,09,12,12,13,22.20
2015,09,12,12,14,22.20
2015,09,12,12,15,22.10
2015,09,12,12,16,22.10
2015,09,12,12,17,22.00
2015,09,12,12,18,22.00
2015,09,12,12,19,22.10
2015,09,12,12,20,22.10
2015,09,12,12,21,22.10
2015,09,12,12,22,22.10
2015,09,12,12,23,22.10
2015,09,12,12,24,22.10
2015,09,12,12,25,21.80
2015,09,12,12,26,21.60
2015,09,12,12,27,21.70
2015,09,12,12,28,21.80
2015,09,12,12,29,21.70
2015,09,12,12,30,21.70
2015,09,12,12,31,21.50
2015,09,12,12,32,21.40
2015,09,12,12,33,21.40
2015,09,12,12,34,21.50
2015,09,12,12,35,21.60
2015,09,12,12,36,21.80
2015,09,12,12,37,21.90
2015,09,12,12,38,22.10
2015,09,12,12,39,22.10
2015,09,12,12,40,22.20
2015,09,12,12,41,22.20
2015,09,12,12,42,22.20
2015,09,12,12,43,22.30
2015,09,12,12,44,22.30
2015,09,12,12,45,22.20
2015,09,12,12,46,22.10
2015,09,12,12,47,22.10
2015,09,12,12,48,22.00
2015,09,12,12,49,22.00
2015,09,12,12,50,22.00
2015,09,12,12,51,22.10
2015,09,12,12,52,22.20
2015,09,12,12,53,22.30
2015,09,12,12,54,22.40
2015,09,12,12,55,22.40
2015,09,12,12,56,22.50
2015,09,12,12,57,22.50
2015,09,12,12,58,22.60
2015,09,12,12,59,22.60
2015,09,12,13,00,22.50
2015,09,12,13,01,22.40
2015,09,12,13,02,22.30
2015,09,12,13,03,22.40
2015,09,12,13,04,22.50
2015,09,12,13,05,22.60
2015,09,12,13,06,22.80
2015,09,12,13,07,22.90
2015,09,12,13,08,23.10
2015,09,12,13,09,23.10
2015,09,12,13,10,23.10
2015,09,12,13,11,23.10
2015,09,12,13,12,23.20
2015,09,12,13,13,23.20
2015,09,12,13,14,23.20
2015,09,12,13,15,23.20
2015,09,12,13,16,23.20
2015,09,12,13,17,23.20
2015,09,12,13,18,23.10
2015,09,12,13,19,23.10
2015,09,12,13,20,23.20
2015,09,12,13,21,23.20
2015,09,12,13,22,23.30
2015,09,12,13,23,23.40
2015,09,12,13,24,23.50
2015,09,12,13,25,23.70
2015,09,12,13,26,23.80
2015,09,12,13,27,23.80
2015,09,12,13,28,23.90
2015,09,12,13,29,23.90
2015,09,12,13,30,23.90
2015,09,12,13,31,23.80
2015,09,12,13,32,23.80
2015,09,12,13,33,23.80
2015,09,12,13,34,23.80
2015,09,12,13,35,23.80
2015,09,12,13,36,23.80
2015,09,12,13,37,23.80
2015,09,12,13,38,23.80
2015,09,12,13,39,23.90
2015,09,12,13,40,24.00
2015,09,12,13,41,24.10
2015,09,12,13,42,24.10
2015,09,12,13,43,24.10
2015,09,12,13,44,24.10
2015,09,12,13,45,24.10
2015,09,12,13,46,24.00
2015,09,12,13,47,23.90
2015,09,12,13,48,23.80
2015,09,12,13,49,23.80
2015,09,12,13,50,23.70
2015,09,12,13,51,23.60
2015,09,12,13,52,23.60
2015,09,12,13,53,23.40
2015,09,12,13,54,23.40
2015,09,12,13,55,23.50
2015,09,12,13,56,23.50
2015,09,12,13,57,23.30
2015,09,12,13,58,23.20
2015,09,12,13,59,23.10
2015,09,12,14,00,23.10
2015,09,12,14,01,23.20
2015,09,12,14,02,23.40
2015,09,12,14,03,23.40
2015,09,12,14,04,23.30
2015,09,12,14,05,23.30
2015,09,12,14,06,23.30
2015,09,12,14,07,23.40
2015,09,12,14,08,23.40
2015,09,12,14,09,23.40
2015,09,12,14,10,23.40
2015,09,12,14,11,23.40
2015,09,12,14,12,23.30
2015,09,12,14,13,23.20
2015,09,12,14,14,23.10
2015,09,12,14,15,23.00
2015,09,12,14,16,23.00
2015,09,12,14,17,23.00
2015,09,12,14,18,23.00
2015,09,12,14,19,22.90
2015,09,12,14,20,22.80
2015,09,12,14,21,22.80
2015,09,12,14,22,22.80
2015,09,12,14,23,22.90
2015,09,12,14,24,22.90
2015,09,12,14,25,22.90
2015,09,12,14,26,22.80
2015,09,12,14,27,22.80
2015,09,12,14,28,22.80
2015,09,12,14,29,22.70
2015,09,12,14,30,22.60
2015,09,12,14,31,22.60
2015,09,12,14,32,22.60
2015,09,12,14,33,22.70
2015,09,12,14,34,22.80
2015,09,12,14,35,22.80
2015,09,12,14,36,22.80
2015,09,12,14,37,22.70
2015,09,12,14,38,22.60
2015,09,12,14,39,22.60
2015,09,12,14,40,22.60
2015,09,12,14,41,22.60
2015,09,12,14,42,22.60
2015,09,12,14,43,22.50
2015,09,12,14,44,22.40
2015,09,12,14,45,22.30
2015,09,12,14,46,22.40
2015,09,12,14,47,22.40
2015,09,12,14,48,22.30
2015,09,12,14,49,22.30
2015,09,12,14,50,22.20
2015,09,12,14,51,22.20
2015,09,12,14,52,22.20
2015,09,12,14,53,22.20
2015,09,12,14,54,22.10
2015,09,12,14,55,22.10
2015,09,12,14,56,22.10
2015,09,12,14,57,21.90
2015,09,12,14,58,21.80
2015,09,12,14,59,21.80
2015,09,12,15,00,21.80
2015,09,12,15,01,21.80
2015,09,12,15,02,21.80
2015,09,12,15,03,21.80
2015,09,12,15,04,21.80
2015,09,12,15,05,21.70
2015,09,12,15,06,21.70
2015,09,12,15,07,21.70
2015,09,12,15,08,21.60
2015,09,12,15,09,21.60
2015,09,12,15,10,21.60
2015,09,12,15,11,21.60
2015,09,12,15,12,21.40
2015,09,12,15,13,21.30
2015,09,12,15,14,21.10
2015,09,12,15,15,21.10
2015,09,12,15,16,20.90
2015,09,12,15,17,20.80
2015,09,12,15,18,20.80
2015,09,12,15,19,20.70
2015,09,12,15,20,20.70
2015,09,12,15,21,20.70
2015,09,12,15,22,20.70
2015,09,12,15,23,20.70
2015,09,12,15,24,20.80
2015,09,12,15,25,20.90
2015,09,12,15,26,20.90
2015,09,12,15,27,21.10
2015,09,12,15,28,21.30
2015,09,12,15,29,21.50
2015,09,12,15,30,21.60
2015,09,12,15,31,21.60
2015,09,12,15,32,21.80
2015,09,12,15,33,21.80
2015,09,12,15,34,21.80
2015,09,12,15,35,21.80
2015,09,12,15,36,21.80
2015,09,12,15,37,21.70
2015,09,12,15,38,21.60
2015,09,12,15,39,21.60
2015,09,12,15,40,21.60
2015,09,12,15,41,21.70
2015,09,12,15,42,21.70
2015,09,12,15,43,21.70
2015,09,12,15,44,21.60
2015,09,12,15,45,21.50
2015,09,12,15,46,21.40
2015,09,12,15,47,21.40
2015,09,12,15,48,21.30
2015,09,12,15,49,21.30
2015,09,12,15,50,21.30
2015,09,12,15,51,21.30
2015,09,12,15,52,21.30
2015,09,12,15,53,21.30
2015,09,12,15,54,21.20
2015,09,12,15,55,21.30
2015,09,12,15,56,21.40
2015,09,12,15,57,21.50
2015,09,12,15,58,21.50
2015,09,12,15,59,21.50
2015,09,12,16,00,21.60
2015,09,12,16,01,21.50
2015,09,12,16,02,21.50
2015,09,12,16,03,21.50
2015,09,12,16,04,21.60
2015,09,12,16,05,21.80
2015,09,12,16,06,22.00
2015,09,12,16,07,22.20
2015,09,12,16,08,22.30
2015,09,12,16,09,22.30
2015,09,12,16,10,22.30
2015,09,12,16,11,22.30
2015,09,12,16,12,22.00
2015,09,12,16,13,22.00
2015,09,12,16,14,21.70
2015,09,12,16,15,21.60
2015,09,12,16,16,21.60
2015,09,12,16,17,21.70
2015,09,12,16,18,21.80
2015,09,12,16,19,21.80
2015,09,12,16,20,21.80
2015,09,12,16,21,21.70
2015,09,12,16,22,21.70
2015,09,12,16,23,21.70
2015,09,12,16,24,21.70
2015,09,12,16,25,21.70
2015,09,12,16,26,21.70
2015,09,12,16,27,21.60
2015,09,12,16,28,21.60
2015,09,12,16,29,21.60
2015,09,12,16,30,21.60
2015,09,12,16,31,21.60
2015,09,12,16,32,21.60
2015,09,12,16,33,21.60
2015,09,12,16,34,21.60
2015,09,12,16,35,21.70
2015,09,12,16,36,21.90
2015,09,12,16,37,22.00
2015,09,12,16,38,22.00
2015,09,12,16,39,22.00
2015,09,12,16,40,21.90
2015,09,12,16,41,21.90
2015,09,12,16,42,21.80
2015,09,12,16,43,21.80
2015,09,12,16,44,21.90
2015,09,12,16,45,21.90
2015,09,12,16,46,21.90
2015,09,12,16,47,21.90
2015,09,12,16,48,21.80
2015,09,12,16,49,21.80
2015,09,12,16,50,21.80
2015,09,12,16,51,21.90
2015,09,12,16,52,22.00
2015,09,12,16,53,22.00
2015,09,12,16,54,21.90
2015,09,12,16,55,21.90
2015,09,12,16,56,21.80
2015,09,12,16,57,21.80
2015,09,12,16,58,21.80
2015,09,12,16,59,22.00
2015,09,12,17,00,22.10
2015,09,12,17,01,22.10
2015,09,12,17,02,22.10
2015,09,12,17,03,22.10
2015,09,12,17,04,21.90
2015,09,12,17,05,21.80
2015,09,12,17,06,21.70
2015,09,12,17,07,21.80
2015,09,12,17,08,21.90
2015,09,12,17,09,21.90
2015,09,12,17,10,21.90
2015,09,12,17,11,21.90
2015,09,12,17,12,21.90
2015,09,12,17,13,21.70
2015,09,12,17,14,21.60
2015,09,12,17,15,21.40
2015,09,12,17,16,21.40
2015,09,12,17,17,21.30
2015,09,12,17,18,21.30
2015,09,12,17,19,21.30